RCL4 YBHM-YBBN

Flight info

Callsign RCL4
Flight time 1h 12m
Altitude 19000
Route OVRON B462 MK V153 MUNAR/N0466F330 Y61 RUROX Y177 BN
Aircraft E190/M-SDFHIRWYZ/LB1

Departure

Time 2026-04-18 07:53
Airport Hamilton Island Airport (YBHM)

Arrival

Time 2026-04-18 09:06
Airport Brisbane International Airport (YBBN)
Time Latitude Longitude Altitude Speed Heading
2026-04-18 07:38 -20.35288 148.95022 19 ft 0 kts
2026-04-18 07:48 -20.35287 148.95022 19 ft 1 kts 358°
2026-04-18 07:48 -20.35281 148.95015 19 ft 2 kts 307°
2026-04-18 07:49 -20.35285 148.95006 19 ft 1 kts 237°
2026-04-18 07:49 -20.35295 148.95005 19 ft 3 kts 188°
2026-04-18 07:49 -20.35325 148.95002 21 ft 5 kts 181°
2026-04-18 07:49 -20.35365 148.94994 22 ft 7 kts 205°
2026-04-18 07:50 -20.35377 148.94981 19 ft 0 kts 233°
2026-04-18 07:50 -20.35378 148.94979 19 ft 0 kts 233°
2026-04-18 07:50 -20.35380 148.94976 19 ft 2 kts 233°
2026-04-18 07:51 -20.35398 148.94951 20 ft 7 kts 233°
2026-04-18 07:51 -20.35403 148.94893 23 ft 11 kts 301°
2026-04-18 07:51 -20.35335 148.94835 22 ft 13 kts 323°
2026-04-18 07:51 -20.35255 148.94770 19 ft 16 kts 322°
2026-04-18 07:52 -20.35160 148.94696 19 ft 18 kts 333°
2026-04-18 07:52 -20.35092 148.94663 20 ft 9 kts 247°
2026-04-18 07:52 -20.35139 148.94677 20 ft 7 kts 141°
2026-04-18 07:52 -20.35189 148.94719 19 ft 17 kts 143°
2026-04-18 07:53 -20.35442 148.94923 21 ft 81 kts 143°
2026-04-18 07:53 -20.36068 148.95427 27 ft 142 kts 143°
2026-04-18 07:53 -20.36902 148.96072 632 ft 145 kts 142°
2026-04-18 07:53 -20.37741 148.96653 1439 ft 145 kts 145°
2026-04-18 07:54 -20.38707 148.97250 1793 ft 173 kts 156°
2026-04-18 07:54 -20.39972 148.97244 2301 ft 195 kts 195°
2026-04-18 07:54 -20.41211 148.96629 3015 ft 199 kts 207°
2026-04-18 07:54 -20.42543 148.96324 3665 ft 202 kts 167°
2026-04-18 07:55 -20.43874 148.96960 4265 ft 218 kts 148°
2026-04-18 07:55 -20.45243 148.97769 4998 ft 239 kts 154°
2026-04-18 07:55 -20.46884 148.98461 5553 ft 266 kts 161°
2026-04-18 07:55 -20.48692 148.99026 6503 ft 273 kts 164°
2026-04-18 07:56 -20.50540 148.99559 7588 ft 276 kts 164°
2026-04-18 07:56 -20.52366 149.00086 8675 ft 278 kts 164°
2026-04-18 07:56 -20.54279 149.00642 9769 ft 282 kts 165°
2026-04-18 07:56 -20.56223 149.01206 10533 ft 301 kts 165°
2026-04-18 07:57 -20.58317 149.01814 11136 ft 322 kts 166°
2026-04-18 07:57 -20.60551 149.02461 11693 ft 342 kts 167°
2026-04-18 07:57 -20.62844 149.03123 12545 ft 349 kts 167°
2026-04-18 07:57 -20.65237 149.03817 13474 ft 355 kts 168°
2026-04-18 07:58 -20.70052 149.05215 15266 ft 367 kts 168°
2026-04-18 07:58 -20.72544 149.05936 16151 ft 374 kts 168°
2026-04-18 07:58 -20.75071 149.06669 16988 ft 380 kts 168°
2026-04-18 07:59 -20.77641 149.07412 17766 ft 385 kts 169°
2026-04-18 07:59 -20.80249 149.08166 18480 ft 391 kts 169°
2026-04-18 07:59 -20.81987 149.08671 18934 ft 395 kts 169°
2026-04-18 07:59 -20.82551 149.08834 19082 ft 394 kts 169°
2026-04-18 08:00 -20.85200 149.09604 19446 ft 398 kts 169°
2026-04-18 08:00 -20.87896 149.10381 20068 ft 404 kts 169°
2026-04-18 08:00 -20.90623 149.11170 20718 ft 409 kts 169°
2026-04-18 08:00 -20.93384 149.11970 21312 ft 413 kts 169°
2026-04-18 08:01 -20.96176 149.12778 21887 ft 418 kts 169°
2026-04-18 08:01 -20.98998 149.13596 22465 ft 422 kts 169°
2026-04-18 08:01 -21.01850 149.14423 22992 ft 427 kts 170°
2026-04-18 08:01 -21.04733 149.15257 23507 ft 431 kts 170°
2026-04-18 08:02 -21.07644 149.16100 23968 ft 436 kts 170°
2026-04-18 08:02 -21.10589 149.16950 24460 ft 440 kts 170°
2026-04-18 08:02 -21.13547 149.17810 24952 ft 442 kts 170°
2026-04-18 08:02 -21.16522 149.18672 25420 ft 444 kts 170°
2026-04-18 08:03 -21.19516 149.19543 25850 ft 447 kts 170°
2026-04-18 08:03 -21.21509 149.20127 26127 ft 449 kts 170°
2026-04-18 08:03 -21.24525 149.21011 26549 ft 451 kts 170°
2026-04-18 08:03 -21.27561 149.21899 26949 ft 453 kts 170°
2026-04-18 08:04 -21.30609 149.22794 27340 ft 456 kts 171°
2026-04-18 08:04 -21.33678 149.23690 27729 ft 458 kts 171°
2026-04-18 08:04 -21.36757 149.24593 28117 ft 460 kts 171°
2026-04-18 08:04 -21.40894 149.25803 28594 ft 462 kts 171°
2026-04-18 08:05 -21.42952 149.26404 28824 ft 463 kts 171°
2026-04-18 08:05 -21.46066 149.27319 29178 ft 464 kts 171°
2026-04-18 08:05 -21.49168 149.28239 29653 ft 463 kts 169°
2026-04-18 08:05 -21.52210 149.29414 30072 ft 465 kts 165°
2026-04-18 08:06 -21.55225 149.30683 30463 ft 465 kts 165°
2026-04-18 08:06 -21.58224 149.31956 30843 ft 464 kts 165°
2026-04-18 08:06 -21.61222 149.33224 31247 ft 462 kts 165°
2026-04-18 08:06 -21.64210 149.34482 31619 ft 461 kts 165°
2026-04-18 08:07 -21.67194 149.35740 31952 ft 460 kts 165°
2026-04-18 08:07 -21.70173 149.36997 32276 ft 460 kts 166°
2026-04-18 08:07 -21.73148 149.38250 32596 ft 459 kts 166°
2026-04-18 08:07 -21.76116 149.39502 32904 ft 458 kts 166°
2026-04-18 08:08 -21.79090 149.40755 33079 ft 462 kts 166°
2026-04-18 08:08 -21.85161 149.43313 33061 ft 474 kts 166°
2026-04-18 08:09 -21.91305 149.45911 32980 ft 474 kts 166°
2026-04-18 08:09 -21.97459 149.48515 32978 ft 475 kts 166°
2026-04-18 08:10 -22.03618 149.51123 32977 ft 477 kts 166°
2026-04-18 08:10 -22.09789 149.53737 32980 ft 477 kts 166°
2026-04-18 08:11 -22.15965 149.56355 32983 ft 477 kts 166°
2026-04-18 08:11 -22.22134 149.58974 32981 ft 477 kts 166°
2026-04-18 08:12 -22.28308 149.61597 32970 ft 477 kts 166°
2026-04-18 08:12 -22.34437 149.64205 32971 ft 477 kts 166°
2026-04-18 08:13 -22.40611 149.66831 32977 ft 477 kts 166°
2026-04-18 08:13 -22.46779 149.69459 32971 ft 477 kts 166°
2026-04-18 08:14 -22.52951 149.72091 32975 ft 477 kts 166°
2026-04-18 08:14 -22.59126 149.74728 32974 ft 477 kts 166°
2026-04-18 08:15 -22.65299 149.77360 32969 ft 477 kts 166°
2026-04-18 08:15 -22.71476 149.80008 32970 ft 477 kts 166°
2026-04-18 08:16 -22.77650 149.82660 32973 ft 477 kts 166°
2026-04-18 08:16 -22.83829 149.85300 32972 ft 477 kts 167°
2026-04-18 08:17 -22.90005 149.87949 32970 ft 477 kts 167°
2026-04-18 08:17 -22.96183 149.90601 32968 ft 478 kts 167°
2026-04-18 08:18 -23.02366 149.93253 32971 ft 478 kts 167°
2026-04-18 08:18 -23.08547 149.95916 32972 ft 478 kts 167°
2026-04-18 08:19 -23.14688 149.98564 32977 ft 478 kts 167°
2026-04-18 08:19 -23.20868 150.01230 32973 ft 478 kts 167°
2026-04-18 08:20 -23.27057 150.03896 32975 ft 479 kts 167°
2026-04-18 08:20 -23.33252 150.06571 32975 ft 478 kts 168°
2026-04-18 08:21 -23.39436 150.09243 32976 ft 478 kts 168°
2026-04-18 08:21 -23.45623 150.11919 32970 ft 478 kts 168°
2026-04-18 08:22 -23.51810 150.14602 32974 ft 478 kts 168°
2026-04-18 08:22 -23.57994 150.17285 32972 ft 479 kts 168°
2026-04-18 08:23 -23.64179 150.19973 32973 ft 479 kts 168°
2026-04-18 08:23 -23.70370 150.22659 32974 ft 478 kts 168°
2026-04-18 08:24 -23.76556 150.25347 32972 ft 479 kts 168°
2026-04-18 08:24 -23.82743 150.28043 32970 ft 479 kts 168°
2026-04-18 08:25 -23.88936 150.30744 32979 ft 479 kts 168°
2026-04-18 08:25 -23.95077 150.33424 32973 ft 479 kts 168°
2026-04-18 08:26 -24.01266 150.36129 32974 ft 479 kts 168°
2026-04-18 08:26 -24.07457 150.38834 32976 ft 479 kts 168°
2026-04-18 08:27 -24.13645 150.41542 32977 ft 479 kts 168°
2026-04-18 08:27 -24.19827 150.44250 32974 ft 479 kts 168°
2026-04-18 08:28 -24.26017 150.46964 32980 ft 479 kts 168°
2026-04-18 08:28 -24.32202 150.49683 32983 ft 479 kts 168°
2026-04-18 08:29 -24.38391 150.52404 32992 ft 479 kts 168°
2026-04-18 08:29 -24.44576 150.55125 32995 ft 479 kts 168°
2026-04-18 08:30 -24.50682 150.58175 33019 ft 493 kts 159°
2026-04-18 08:30 -24.56461 150.62360 32985 ft 498 kts 156°
2026-04-18 08:31 -24.62214 150.66598 32989 ft 498 kts 156°
2026-04-18 08:31 -24.67981 150.70811 32986 ft 497 kts 156°
2026-04-18 08:32 -24.73752 150.75017 32993 ft 498 kts 156°
2026-04-18 08:32 -24.79533 150.79242 32989 ft 500 kts 156°
2026-04-18 08:33 -24.85319 150.83482 32989 ft 499 kts 156°
2026-04-18 08:33 -24.91070 150.87692 32988 ft 500 kts 156°
2026-04-18 08:34 -24.96863 150.91937 32989 ft 500 kts 156°
2026-04-18 08:34 -25.02654 150.96188 33004 ft 501 kts 156°
2026-04-18 08:35 -25.08452 151.00447 33003 ft 501 kts 156°
2026-04-18 08:35 -25.14242 151.04711 33001 ft 500 kts 156°
2026-04-18 08:36 -25.20037 151.08974 32998 ft 501 kts 157°
2026-04-18 08:36 -25.25839 151.13249 33003 ft 502 kts 156°
2026-04-18 08:37 -25.31630 151.17528 33000 ft 501 kts 157°
2026-04-18 08:37 -25.37429 151.21816 33001 ft 501 kts 157°
2026-04-18 08:38 -25.43227 151.26106 33020 ft 503 kts 157°
2026-04-18 08:38 -25.49042 151.30421 33016 ft 503 kts 157°
2026-04-18 08:39 -25.54862 151.34734 33021 ft 503 kts 157°
2026-04-18 08:39 -25.60675 151.39050 33018 ft 503 kts 157°
2026-04-18 08:40 -25.66490 151.43374 33028 ft 503 kts 157°
2026-04-18 08:40 -25.72306 151.47701 33029 ft 504 kts 157°
2026-04-18 08:41 -25.77861 151.52635 33050 ft 519 kts 148°
2026-04-18 08:41 -25.83233 151.58007 33022 ft 520 kts 148°
2026-04-18 08:42 -25.88609 151.63368 33027 ft 519 kts 148°
2026-04-18 08:42 -25.93991 151.68720 33037 ft 519 kts 148°
2026-04-18 08:43 -25.99380 151.74085 33028 ft 521 kts 148°
2026-04-18 08:43 -26.04741 151.79430 33039 ft 522 kts 148°
2026-04-18 08:44 -26.10141 151.84820 33048 ft 521 kts 148°
2026-04-18 08:44 -26.15539 151.90213 33051 ft 522 kts 148°
2026-04-18 08:45 -26.20937 151.95612 33059 ft 521 kts 148°
2026-04-18 08:45 -26.26331 152.01017 33059 ft 521 kts 148°
2026-04-18 08:46 -26.31723 152.06429 33056 ft 522 kts 148°
2026-04-18 08:46 -26.37080 152.11822 33043 ft 516 kts 148°
2026-04-18 08:47 -26.42414 152.17181 33052 ft 516 kts 148°
2026-04-18 08:47 -26.45110 152.19883 31937 ft 525 kts 148°
2026-04-18 08:47 -26.47825 152.22614 30511 ft 525 kts 147°
2026-04-18 08:47 -26.50531 152.25342 29009 ft 523 kts 147°
2026-04-18 08:48 -26.53197 152.28039 28136 ft 506 kts 146°
2026-04-18 08:48 -26.55740 152.30626 27430 ft 485 kts 146°
2026-04-18 08:48 -26.58206 152.33116 26864 ft 476 kts 146°
2026-04-18 08:48 -26.60681 152.35599 26210 ft 479 kts 146°
2026-04-18 08:49 -26.63147 152.38084 25573 ft 475 kts 145°
2026-04-18 08:49 -26.65575 152.40555 24950 ft 469 kts 144°
2026-04-18 08:49 -26.67957 152.43012 24324 ft 462 kts 144°
2026-04-18 08:49 -26.70300 152.45425 23719 ft 454 kts 143°
2026-04-18 08:50 -26.72605 152.47800 23121 ft 446 kts 143°
2026-04-18 08:50 -26.74875 152.50133 22525 ft 440 kts 143°
2026-04-18 08:50 -26.77107 152.52430 21950 ft 433 kts 143°
2026-04-18 08:50 -26.78569 152.53936 21568 ft 429 kts 143°
2026-04-18 08:51 -26.81449 152.56902 20822 ft 421 kts 143°
2026-04-18 08:51 -26.82899 152.58398 20445 ft 418 kts 142°
2026-04-18 08:51 -26.85712 152.61302 19723 ft 412 kts 142°
2026-04-18 08:51 -26.87806 152.63460 19173 ft 407 kts 142°
2026-04-18 08:52 -26.89872 152.65600 18643 ft 402 kts 142°
2026-04-18 08:52 -26.91908 152.67722 18107 ft 398 kts 141°
2026-04-18 08:52 -26.93907 152.69836 17436 ft 393 kts 141°
2026-04-18 08:52 -26.95930 152.71913 16830 ft 387 kts 142°
2026-04-18 08:53 -26.97719 152.74164 15609 ft 390 kts 127°
2026-04-18 08:53 -26.98943 152.76871 14250 ft 388 kts 116°
2026-04-18 08:53 -26.99645 152.78742 13277 ft 384 kts 116°
2026-04-18 08:53 -27.00709 152.81473 11772 ft 380 kts 117°
2026-04-18 08:54 -27.01822 152.84146 10171 ft 376 kts 118°
2026-04-18 08:54 -27.02942 152.86728 8860 ft 367 kts 118°
2026-04-18 08:54 -27.04053 152.89233 7714 ft 352 kts 118°
2026-04-18 08:54 -27.05141 152.91655 6786 ft 345 kts 119°
2026-04-18 08:55 -27.06200 152.93996 6547 ft 327 kts 118°
2026-04-18 08:55 -27.07173 152.96234 6287 ft 313 kts 115°
2026-04-18 08:55 -27.07922 152.98477 6011 ft 302 kts 109°
2026-04-18 08:55 -27.08454 153.00714 5767 ft 291 kts 105°
2026-04-18 08:56 -27.08883 153.02897 5514 ft 282 kts 104°
2026-04-18 08:56 -27.09286 153.05015 5266 ft 273 kts 104°
2026-04-18 08:56 -27.09667 153.07046 5340 ft 263 kts 104°
2026-04-18 08:56 -27.10063 153.09120 5154 ft 279 kts 104°
2026-04-18 08:57 -27.10513 153.13428 4300 ft 278 kts 89°
2026-04-18 08:57 -27.10313 153.15574 3913 ft 275 kts 84°
2026-04-18 08:57 -27.10004 153.17672 3564 ft 268 kts 83°
2026-04-18 08:58 -27.09788 153.19681 3233 ft 249 kts 93°
2026-04-18 08:58 -27.09948 153.21533 3108 ft 233 kts 110°
2026-04-18 08:58 -27.10787 153.23026 3091 ft 227 kts 140°
2026-04-18 08:58 -27.12074 153.24050 3059 ft 229 kts 147°
2026-04-18 08:59 -27.13529 153.24729 2978 ft 225 kts 174°
2026-04-18 08:59 -27.15006 153.24420 2968 ft 213 kts 202°
2026-04-18 08:59 -27.16177 153.23487 2988 ft 197 kts 214°
2026-04-18 08:59 -27.17271 153.22712 3034 ft 178 kts 201°
2026-04-18 09:00 -27.18386 153.22141 3001 ft 176 kts 202°
2026-04-18 09:00 -27.19466 153.21500 2995 ft 175 kts 205°
2026-04-18 09:00 -27.20515 153.20881 3007 ft 164 kts 202°
2026-04-18 09:00 -27.21173 153.20515 2972 ft 156 kts 202°
2026-04-18 09:01 -27.21848 153.20135 2947 ft 153 kts 202°
2026-04-18 09:01 -27.22790 153.19588 2822 ft 155 kts 202°
2026-04-18 09:01 -27.23746 153.19041 2610 ft 153 kts 202°
2026-04-18 09:02 -27.24694 153.18498 2415 ft 153 kts 203°
2026-04-18 09:02 -27.25647 153.17951 2216 ft 154 kts 203°
2026-04-18 09:02 -27.26602 153.17403 2021 ft 154 kts 203°
2026-04-18 09:02 -27.27530 153.16872 1799 ft 146 kts 203°
2026-04-18 09:03 -27.28416 153.16364 1600 ft 141 kts 204°
2026-04-18 09:03 -27.29282 153.15865 1430 ft 140 kts 204°
2026-04-18 09:03 -27.30156 153.15365 1251 ft 142 kts 204°
2026-04-18 09:03 -27.31039 153.14858 1061 ft 143 kts 204°
2026-04-18 09:04 -27.31922 153.14349 870 ft 142 kts 204°
2026-04-18 09:04 -27.32803 153.13846 677 ft 141 kts 204°
2026-04-18 09:04 -27.33674 153.13345 494 ft 140 kts 205°
2026-04-18 09:04 -27.34546 153.12844 305 ft 141 kts 205°
2026-04-18 09:05 -27.35411 153.12331 122 ft 138 kts 206°
2026-04-18 09:05 -27.36260 153.11852 21 ft 130 kts 210°
2026-04-18 09:05 -27.36981 153.11439 19 ft 96 kts 207°
2026-04-18 09:05 -27.37461 153.11167 19 ft 58 kts 201°
2026-04-18 09:06 -27.37778 153.11131 16 ft 25 kts 176°
2026-04-18 09:06 -27.37868 153.11166 16 ft 13 kts 126°
2026-04-18 09:06 -27.37866 153.11258 16 ft 13 kts 43°
2026-04-18 09:06 -27.37782 153.11310 16 ft 15 kts 27°
2026-04-18 09:07 -27.37682 153.11365 18 ft 16 kts 26°
2026-04-18 09:07 -27.37598 153.11412 16 ft 18 kts 28°
2026-04-18 09:07 -27.37484 153.11479 17 ft 18 kts 27°
2026-04-18 09:07 -27.37382 153.11542 17 ft 15 kts 22°
2026-04-18 09:08 -27.37329 153.11624 18 ft 15 kts 113°
2026-04-18 09:08 -27.37379 153.11731 16 ft 16 kts 118°
2026-04-18 09:08 -27.37433 153.11850 18 ft 18 kts 117°
2026-04-18 09:08 -27.37491 153.11979 18 ft 19 kts 117°
2026-04-18 09:09 -27.37554 153.12119 17 ft 21 kts 117°
2026-04-18 09:09 -27.37622 153.12267 18 ft 22 kts 119°
2026-04-18 09:09 -27.37695 153.12423 17 ft 23 kts 116°
2026-04-18 09:09 -27.37769 153.12588 18 ft 24 kts 117°
2026-04-18 09:10 -27.37857 153.12731 16 ft 19 kts 165°
2026-04-18 09:10 -27.37980 153.12672 18 ft 20 kts 206°
2026-04-18 09:10 -27.38109 153.12598 19 ft 22 kts 207°
2026-04-18 09:10 -27.38196 153.12549 17 ft 1 kts 206°
2026-04-18 09:11 -27.38199 153.12547 17 ft 1 kts 206°
2026-04-18 09:11 -27.38206 153.12543 17 ft 0 kts 210°
2026-04-18 09:11 -27.38207 153.12542 18 ft 1 kts 210°
2026-04-18 09:11 -27.38235 153.12525 17 ft 9 kts 208°
2026-04-18 09:12 -27.38276 153.12474 17 ft 8 kts 284°
2026-04-18 09:12 -27.38273 153.12385 16 ft 16 kts 255°
2026-04-18 09:12 -27.38291 153.12280 16 ft 2 kts 259°